Glendale Luke AFB, AZ

9:54 PM MST on April 20, 2018 (GMT -0700)
Luke Air Force Base

Weather History for KLUF - August, 2013

Change the Weather History Date:

Saturday, August 17, 2013

  Actual Average Record
Temperature  
Mean Temperature 98 °F -  
Max Temperature 110 °F 104 °F 113 °F (1992)
Min Temperature 86 °F 72 °F 59 °F (1918)
Cooling Degree Days 33    
Growing Degree Days 48 (Base 50)    
Moisture  
Dew Point 58 °F    
Average Humidity 29    
Maximum Humidity 58    
Minimum Humidity 15    
Precipitation  
Precipitation 0.02 in - - ()
Sea Level Pressure  
Sea Level Pressure 29.81 in    
Wind  
Wind Speed 9 mph (NE)    
Max Wind Speed 37 mph    
Max Gust Speed 47 mph    
Visibility 9 miles    
Events Rain , Thunderstorm    
Averages and records for this station are not official NWS values.
T = Trace of Precipitation, MM = Missing Value Source: NWS Daily Summary

Daily Weather History Graph

Daily Weather History Graph

Search for Another Location

Airport or City:

Astronomy

Aug. 17, 2013 Rise Set
Actual Time 5:53 AM MST 7:13 PM MST
Civil Twilight 5:27 AM MST 7:39 PM MST
Nautical Twilight 4:56 AM MST 8:10 PM MST
Astronomical Twilight 4:23 AM MST 8:42 PM MST
Moon 4:27 PM MST (8/17) 2:06 AM MST (8/17)
Length of Visible Light 14h 11m
Length of Day
13h 19m
Waxing Gibbous, 85% of the Moon is Illuminated
Aug 17
Waxing Gibbous
Aug 20
Full
Aug 28
Last Quarter
Sep 5
New
Sep 12
First Quarter

Hourly Weather History & Observations

Time (MST) Temp. Heat Index Dew Point Humidity Pressure Visibility Wind Dir Wind Speed Gust Speed Precip Events Conditions
12:58 AM 95.5 °F 94.1 °F 57.0 °F 27% 29.81 in 10.0 mi Calm Calm - N/A   Clear
1:58 AM 95.0 °F 93.7 °F 57.2 °F 28% 29.81 in 10.0 mi SE 3.5 mph - N/A   Clear
2:58 AM 93.9 °F 93.2 °F 58.6 °F 31% 29.80 in 10.0 mi East 2.3 mph - N/A   Scattered Clouds
3:58 AM 90.5 °F 89.5 °F 58.6 °F 34% 29.81 in 10.0 mi Calm Calm - N/A   Partly Cloudy
4:58 AM 87.6 °F 87.4 °F 60.6 °F 40% 29.82 in 10.0 mi NNW 3.5 mph - N/A   Partly Cloudy
5:58 AM 87.4 °F 87.7 °F 62.1 °F 42% 29.84 in 10.0 mi ENE 3.5 mph - N/A   Mostly Cloudy
6:58 AM 88.3 °F 88.4 °F 61.0 °F 40% 29.85 in 10.0 mi NW 4.6 mph - N/A   Clear
7:58 AM 91.0 °F 90.9 °F 60.3 °F 36% 29.87 in 10.0 mi ENE 3.5 mph - N/A   Clear
8:58 AM 94.1 °F 93.9 °F 59.7 °F 32% 29.87 in 10.0 mi NNE 3.5 mph - N/A   Clear
9:58 AM 97.3 °F 97.5 °F 59.7 °F 29% 29.87 in 10.0 mi Calm Calm - N/A   Clear
10:58 AM 100.6 °F 100.5 °F 58.5 °F 25% 29.85 in 10.0 mi Variable 1.2 mph - N/A   Clear
11:58 AM 103.5 °F 103.2 °F 57.7 °F 22% 29.81 in 10.0 mi ESE 4.6 mph - N/A   Clear
12:58 PM 105.6 °F 105.9 °F 57.6 °F 21% 29.77 in 10.0 mi Variable 5.8 mph - N/A   Clear
1:58 PM 106.9 °F 107.1 °F 57.2 °F 20% 29.74 in 10.0 mi West 4.6 mph - N/A   Clear
2:58 PM 108.9 °F 108.6 °F 56.1 °F 18% 29.71 in 10.0 mi SSW 12.7 mph - N/A   Clear
3:58 PM 109.8 °F 108.4 °F 53.2 °F 16% 29.68 in 10.0 mi West 8.1 mph - N/A   Clear
4:58 PM 110.1 °F - 52.3 °F 15% 29.67 in 10.0 mi WSW 4.6 mph - N/A   Clear
5:58 PM 109.4 °F - 52.2 °F 15% 29.67 in 10.0 mi Variable 2.3 mph - N/A   Clear
6:58 PM 108.1 °F - 51.8 °F 15% 29.69 in 9.0 mi North 20.7 mph 21.9 mph N/A   Clear
7:08 PM 102.2 °F 101.4 °F 57.2 °F 22% 29.74 in 4.0 mi NNE 26.5 mph 34.5 mph N/A   Haze
7:18 PM 100.4 °F 99.7 °F 57.2 °F 24% 29.75 in 7.0 mi NNE 23.0 mph 33.4 mph N/A   Partly Cloudy
7:28 PM 98.6 °F 98.5 °F 59.0 °F 27% 29.76 in 2.5 mi NNE 31.1 mph 43.7 mph N/A   Light Drizzle
7:48 PM 98.6 °F 98.5 °F 59.0 °F 27% 29.76 in 5.0 mi NNE 31.1 mph 40.3 mph N/A   Haze
7:58 PM 97.9 °F 97.0 °F 57.0 °F 26% 29.73 in 8.0 mi North 29.9 mph 41.4 mph 0.00 in   Clear
8:08 PM 98.6 °F 97.6 °F 57.2 °F 25% 29.77 in 4.0 mi NNE 34.5 mph 46.0 mph N/A   Haze
8:28 PM 96.8 °F 95.8 °F 57.2 °F 27% 29.79 in 5.0 mi NNE 36.8 mph 46.0 mph N/A   Haze
8:48 PM 95.0 °F 94.4 °F 59.0 °F 30% 29.80 in 4.0 mi NNE 33.4 mph 47.2 mph N/A   Haze
8:58 PM 95.0 °F 93.7 °F 57.2 °F 28% 29.76 in 2.5 mi NNE 33.4 mph 44.9 mph N/A   Light Drizzle
9:18 PM 93.2 °F 91.9 °F 57.2 °F 30% 29.83 in 10.0 mi NNE 27.6 mph 41.4 mph N/A   Partly Cloudy
9:45 PM 93.2 °F 92.6 °F 59.0 °F 32% 29.89 in 10.0 mi ENE 18.4 mph 31.1 mph N/A   Mostly Cloudy
9:58 PM 95.0 °F 93.7 °F 57.2 °F 28% 29.87 in 10.0 mi ESE 11.5 mph 23.0 mph 0.01 in   Overcast
10:33 PM 91.4 °F 91.4 °F 60.8 °F 36% 29.94 in 10.0 mi East 10.4 mph - N/A Rain , Thunderstorm Light Thunderstorms and Rain
10:56 PM 93.2 °F 92.6 °F 59.0 °F 32% 29.94 in 10.0 mi NE 16.1 mph - N/A   Light Drizzle
10:58 PM 93.2 °F 92.6 °F 59.0 °F 32% 29.89 in 10.0 mi ENE 15.0 mph - 0.00 in   Light Drizzle
11:48 PM 86.0 °F 89.4 °F 68.0 °F 55% 29.94 in 10.0 mi ENE 8.1 mph - N/A Rain Light Rain
11:58 PM 86.0 °F 90.4 °F 69.6 °F 58% 29.90 in 10.0 mi ENE 16.1 mph - 0.01 in Rain Light Rain